OPS 4682 DEB, 15530

Orbit data source: Space-Track

OPS 4682 DEB, 15530 is space debris in LEO originally from a launch on Sat, 03 Apr 1965 UTC launched from the Air Force Western Test Range (AFWTR). Debris objects in space refer to the collection of defunct objects orbiting the Earth. Examples of debris include non-operational satellites, rocket bodies, and fragments generated from explosions, collisions, or faulty payload assembly.

Loading next visibility...
Identifier
15530, 1965-027T
Orbit
LEO
Country
Flag of USUS
Related business
Manufacturer
Unknown
Mission
Spacecraft
Bus & Motor
Unknown
Mass
Unknown
Launch date (UTC)
1965-04-03 (61 years ago)
Launch vehicle
Unknown
Launch site
Air Force Western Test Range (AFWTR)
Object type
Payload
Rocket body
Debris
Shape & HBR
Unknown shape, 0.1 m
Radar Cross Section
Small (<0.1 m²)

Expand to show TLE details & history
Last TLE update: 11 hours ago

TLE from 11 hours ago
0 OPS 4682 DEB
1 15530U 65027T   26177.57771191  .00000366  00000-0  12125-2 0  9993
2 15530  90.2844  32.8656 0033315   6.3685  21.3398 12.98707620 58872
Epoch: 2026-06-26T13:51Z
TLE epoch observation values (Epoch: 2026-06-26T13:51:54.309Z)
Latitude
27.88529°
Longitude
-89.96464°
Altitude
1,246.863 km
Speed
7.245 km/s
True Right ascension
02h 10m 51s
True Declination
27° 45' 09"
Sunlit
Object was in daylight at epoch
Visualization orbit readout
Latitude
Unknown
Longitude
Unknown
Altitude
Unknown
Speed
Unknown
Apparent Right ascension
Unknown
Apparent Declination
Unknown
Sunlit
N/A
Visualization observer readout
Local Sidereal Time
11:42:48
Azimuth
Unknown
Elevation
Unknown
Doppler factor
Unknown
Orbital elements
Apogee altitude
1,289.744 km
Perigee altitude
1,238.823 km
Semi-major axis
7,642.42 km
Eccentricity
0.00333
Inclination
90.2844°
RAAN
32.8656°
Arg. of periapsis
6.3685°
True anomaly
21.47926°
Mean anomaly
21.3398°
Eccentric anomaly
21.40948°
Mean motion
3.2486 °/min
Orbital period
110.82 mins
BSTAR
0.0012125
Loading maneuver chart data...
Computing Atmospheric mass density...
Loading historical data...
Loading historical data...
Loading historical data...
Loading historical data...
Loading historical data...
Loading historical data...
Loading historical data...

Documentation

Showing up to 5 results
|